RYR2TW EDDF-EGKK

Flight info

Callsign RYR2TW
Flight time 1h 9m
Altitude 32000
Route SOBRA2L/18 SOBRA Y180 BITBU Y181 DEMUL M624 BUB L608 DENUT L610 TEBRA
Aircraft B738/M-SDE2E3FGHIRWXY/LB1

Departure

Time 2026-04-14 15:34
Airport Frankfurt Main Airport (EDDF)

Arrival

Time 2026-04-14 16:44
Airport London Gatwick Airport (EGKK)
Time Latitude Longitude Altitude Speed Heading
2026-04-14 15:15 50.03813 8.54588 353 ft 0 kts 160°
2026-04-14 15:29 50.03792 8.54600 353 ft 9 kts 160°
2026-04-14 15:29 50.03723 8.54575 344 ft 13 kts 242°
2026-04-14 15:30 50.03688 8.54443 346 ft 13 kts 249°
2026-04-14 15:30 50.03657 8.54315 339 ft 13 kts 250°
2026-04-14 15:30 50.03624 8.54171 341 ft 15 kts 250°
2026-04-14 15:30 50.03579 8.53987 339 ft 22 kts 249°
2026-04-14 15:31 50.03518 8.53735 334 ft 28 kts 250°
2026-04-14 15:31 50.03449 8.53441 337 ft 29 kts 250°
2026-04-14 15:31 50.03386 8.53164 333 ft 26 kts 250°
2026-04-14 15:31 50.03371 8.53110 334 ft 0 kts 244°
2026-04-14 15:32 50.03368 8.53099 332 ft 3 kts 244°
2026-04-14 15:32 50.03345 8.53019 332 ft 13 kts 249°
2026-04-14 15:32 50.03304 8.52828 329 ft 24 kts 251°
2026-04-14 15:32 50.03223 8.52599 332 ft 21 kts 214°
2026-04-14 15:33 50.03126 8.52594 333 ft 13 kts 176°
2026-04-14 15:33 50.02987 8.52601 333 ft 40 kts 179°
2026-04-14 15:33 50.02452 8.52602 334 ft 112 kts 179°
2026-04-14 15:33 50.01519 8.52613 333 ft 148 kts 178°
2026-04-14 15:34 50.00414 8.52611 381 ft 165 kts 179°
2026-04-14 15:34 49.99260 8.52449 585 ft 176 kts 186°
2026-04-14 15:34 49.97903 8.52308 1274 ft 202 kts 180°
2026-04-14 15:34 49.96622 8.52359 3019 ft 159 kts 176°
2026-04-14 15:35 49.95653 8.52457 4227 ft 139 kts 175°
2026-04-14 15:35 49.94478 8.52569 3930 ft 208 kts 176°
2026-04-14 15:35 49.92896 8.52661 3776 ft 231 kts 178°
2026-04-14 15:35 49.91350 8.52657 4618 ft 213 kts 181°
2026-04-14 15:36 49.89929 8.52499 5688 ft 202 kts 186°
2026-04-14 15:36 49.88464 8.52168 6059 ft 230 kts 189°
2026-04-14 15:36 49.86736 8.51653 5227 ft 275 kts 192°
2026-04-14 15:36 49.84734 8.50938 4123 ft 309 kts 194°
2026-04-14 15:37 49.82672 8.50088 4012 ft 297 kts 196°
2026-04-14 15:37 49.80818 8.49214 4386 ft 271 kts 198°
2026-04-14 15:37 49.79058 8.48296 4258 ft 269 kts 199°
2026-04-14 15:37 49.77269 8.47294 3692 ft 279 kts 200°
2026-04-14 15:38 49.75392 8.46257 3186 ft 293 kts 199°
2026-04-14 15:38 49.73472 8.45272 3353 ft 284 kts 198°
2026-04-14 15:38 49.71634 8.44345 4131 ft 274 kts 198°
2026-04-14 15:38 49.69878 8.43402 5488 ft 257 kts 200°
2026-04-14 15:39 49.68253 8.42434 6716 ft 250 kts 210°
2026-04-14 15:39 49.67005 8.40430 7024 ft 274 kts 247°
2026-04-14 15:39 49.66480 8.37575 7730 ft 280 kts 260°
2026-04-14 15:39 49.66355 8.34578 8559 ft 282 kts 281°
2026-04-14 15:40 49.66946 8.31714 9555 ft 281 kts 291°
2026-04-14 15:40 49.67721 8.28965 10345 ft 287 kts 295°
2026-04-14 15:40 49.68693 8.26135 10623 ft 312 kts 298°
2026-04-14 15:40 49.69812 8.23109 10832 ft 336 kts 299°
2026-04-14 15:41 49.71009 8.19895 11214 ft 352 kts 299°
2026-04-14 15:41 49.72231 8.16584 11955 ft 356 kts 298°
2026-04-14 15:41 49.73448 8.13246 12812 ft 358 kts 298°
2026-04-14 15:41 49.74669 8.09859 13532 ft 363 kts 298°
2026-04-14 15:42 49.75900 8.06421 14262 ft 367 kts 298°
2026-04-14 15:42 49.77135 8.02955 14968 ft 369 kts 298°
2026-04-14 15:42 49.78362 7.99502 15619 ft 374 kts 299°
2026-04-14 15:42 49.79619 7.95958 16272 ft 377 kts 299°
2026-04-14 15:43 49.80885 7.92382 16963 ft 380 kts 299°
2026-04-14 15:43 49.82163 7.88769 17600 ft 385 kts 299°
2026-04-14 15:43 49.83454 7.85114 18260 ft 388 kts 299°
2026-04-14 15:43 49.84754 7.81429 18873 ft 391 kts 299°
2026-04-14 15:44 49.85986 7.77651 19468 ft 394 kts 294°
2026-04-14 15:44 49.86829 7.73595 20042 ft 398 kts 285°
2026-04-14 15:44 49.87456 7.69465 20590 ft 401 kts 284°
2026-04-14 15:44 49.88081 7.65244 21124 ft 404 kts 284°
2026-04-14 15:45 49.88715 7.60977 21676 ft 407 kts 284°
2026-04-14 15:45 49.89357 7.56692 22211 ft 409 kts 284°
2026-04-14 15:45 49.90009 7.52379 22748 ft 412 kts 284°
2026-04-14 15:45 49.90669 7.48032 23265 ft 415 kts 284°
2026-04-14 15:46 49.91334 7.43655 23767 ft 418 kts 285°
2026-04-14 15:46 49.92001 7.39263 24197 ft 420 kts 285°
2026-04-14 15:46 49.92664 7.34892 24617 ft 422 kts 285°
2026-04-14 15:46 49.93336 7.30445 25037 ft 424 kts 285°
2026-04-14 15:47 49.94010 7.25971 25450 ft 426 kts 285°
2026-04-14 15:47 49.94685 7.21480 25862 ft 428 kts 285°
2026-04-14 15:47 49.95362 7.16959 26251 ft 431 kts 285°
2026-04-14 15:47 49.96040 7.12420 26636 ft 433 kts 285°
2026-04-14 15:48 49.96719 7.07859 27018 ft 434 kts 286°
2026-04-14 15:48 49.97400 7.03278 27394 ft 436 kts 286°
2026-04-14 15:48 49.98082 6.98676 27753 ft 438 kts 286°
2026-04-14 15:48 49.98756 6.94106 28102 ft 440 kts 285°
2026-04-14 15:49 49.99238 6.89384 28472 ft 445 kts 278°
2026-04-14 15:49 49.99244 6.84562 28974 ft 447 kts 271°
2026-04-14 15:49 49.99073 6.79768 29553 ft 444 kts 271°
2026-04-14 15:49 49.98892 6.74980 30022 ft 443 kts 271°
2026-04-14 15:50 49.98725 6.70209 30411 ft 443 kts 272°
2026-04-14 15:50 49.98575 6.65439 30775 ft 442 kts 272°
2026-04-14 15:50 49.98434 6.60741 31185 ft 440 kts 272°
2026-04-14 15:50 49.98292 6.56014 31624 ft 437 kts 272°
2026-04-14 15:51 49.98146 6.51300 32022 ft 436 kts 272°
2026-04-14 15:51 49.97996 6.46589 32169 ft 439 kts 272°
2026-04-14 15:51 49.97687 6.37076 32164 ft 439 kts 272°
2026-04-14 15:52 49.97374 6.27742 32170 ft 433 kts 272°
2026-04-14 15:52 49.97058 6.18401 32194 ft 434 kts 272°
2026-04-14 15:53 49.96694 6.09027 32178 ft 435 kts 272°
2026-04-14 15:53 49.96970 5.99803 32201 ft 419 kts 293°
2026-04-14 15:54 49.99895 5.92243 32180 ft 406 kts 318°
2026-04-14 15:54 50.01952 5.89250 32201 ft 405 kts 320°
2026-04-14 15:55 50.06064 5.83307 32182 ft 407 kts 319°
2026-04-14 15:55 50.10144 5.77199 32181 ft 407 kts 318°
2026-04-14 15:56 50.14222 5.71050 32195 ft 408 kts 318°
2026-04-14 15:56 50.18300 5.64891 32191 ft 408 kts 318°
2026-04-14 15:57 50.22346 5.58766 32191 ft 408 kts 318°
2026-04-14 15:57 50.26414 5.52594 32197 ft 407 kts 318°
2026-04-14 15:58 50.30471 5.46424 32197 ft 407 kts 317°
2026-04-14 15:58 50.34524 5.40245 32208 ft 406 kts 317°
2026-04-14 15:59 50.38412 5.34302 32204 ft 406 kts 317°
2026-04-14 15:59 50.42440 5.28129 32207 ft 405 kts 317°
2026-04-14 16:00 50.46468 5.21942 32213 ft 405 kts 317°
2026-04-14 16:00 50.50490 5.15749 32211 ft 405 kts 317°
2026-04-14 16:01 50.54479 5.09590 32211 ft 405 kts 317°
2026-04-14 16:01 50.58488 5.03385 32209 ft 404 kts 317°
2026-04-14 16:02 50.62491 4.97173 32212 ft 404 kts 317°
2026-04-14 16:02 50.66489 4.90956 32210 ft 404 kts 317°
2026-04-14 16:03 50.70459 4.84785 32212 ft 403 kts 317°
2026-04-14 16:03 50.74450 4.78578 32193 ft 403 kts 317°
2026-04-14 16:04 50.78418 4.72367 32208 ft 401 kts 317°
2026-04-14 16:04 50.82364 4.66161 32221 ft 400 kts 317°
2026-04-14 16:05 50.86302 4.59959 32213 ft 399 kts 317°
2026-04-14 16:05 50.90129 4.53677 32216 ft 400 kts 311°
2026-04-14 16:06 50.93184 4.46246 32215 ft 403 kts 304°
2026-04-14 16:06 50.96072 4.38619 32221 ft 404 kts 304°
2026-04-14 16:07 50.98978 4.30978 32213 ft 405 kts 304°
2026-04-14 16:07 51.01873 4.23388 32220 ft 405 kts 304°
2026-04-14 16:08 51.04795 4.15719 32199 ft 406 kts 304°
2026-04-14 16:08 51.07714 4.08035 32207 ft 406 kts 304°
2026-04-14 16:09 51.10632 4.00330 32206 ft 407 kts 304°
2026-04-14 16:09 51.13548 3.92609 32194 ft 407 kts 304°
2026-04-14 16:10 51.16443 3.84916 32185 ft 408 kts 303°
2026-04-14 16:10 51.19357 3.77153 32194 ft 408 kts 303°
2026-04-14 16:11 51.22265 3.69362 32184 ft 409 kts 302°
2026-04-14 16:11 51.24334 3.60853 32187 ft 417 kts 286°
2026-04-14 16:12 51.25464 3.51840 32183 ft 417 kts 285°
2026-04-14 16:12 51.26627 3.42761 32192 ft 417 kts 285°
2026-04-14 16:13 51.27813 3.33690 32181 ft 417 kts 285°
2026-04-14 16:13 51.28993 3.24615 32191 ft 417 kts 285°
2026-04-14 16:14 51.30156 3.15606 32182 ft 417 kts 285°
2026-04-14 16:14 51.31319 3.06529 32195 ft 417 kts 285°
2026-04-14 16:15 51.32474 2.97451 32183 ft 417 kts 285°
2026-04-14 16:15 51.33051 2.92901 31845 ft 418 kts 284°
2026-04-14 16:15 51.33620 2.88385 31464 ft 411 kts 284°
2026-04-14 16:15 51.34181 2.83931 31014 ft 407 kts 284°
2026-04-14 16:16 51.34736 2.79515 30545 ft 403 kts 284°
2026-04-14 16:16 51.35276 2.75192 30067 ft 400 kts 283°
2026-04-14 16:16 51.35813 2.70856 29538 ft 396 kts 283°
2026-04-14 16:16 51.36341 2.66554 29041 ft 392 kts 283°
2026-04-14 16:17 51.36860 2.62299 28553 ft 388 kts 282°
2026-04-14 16:17 51.37252 2.58004 27792 ft 392 kts 278°
2026-04-14 16:17 51.37508 2.53685 27287 ft 389 kts 276°
2026-04-14 16:17 51.37728 2.49312 26803 ft 403 kts 276°
2026-04-14 16:18 51.37952 2.44751 26300 ft 417 kts 276°
2026-04-14 16:18 51.38185 2.40106 25764 ft 419 kts 276°
2026-04-14 16:18 51.38421 2.35542 25255 ft 415 kts 276°
2026-04-14 16:18 51.38665 2.30951 24740 ft 412 kts 276°
2026-04-14 16:19 51.38910 2.26399 24224 ft 409 kts 276°
2026-04-14 16:19 51.39155 2.21871 23715 ft 407 kts 275°
2026-04-14 16:19 51.39399 2.17372 23140 ft 404 kts 275°
2026-04-14 16:19 51.39639 2.12908 22609 ft 401 kts 275°
2026-04-14 16:20 51.39875 2.08487 22247 ft 398 kts 275°
2026-04-14 16:20 51.40110 2.04068 22135 ft 399 kts 275°
2026-04-14 16:20 51.40346 1.99595 21265 ft 404 kts 275°
2026-04-14 16:20 51.40578 1.95155 20911 ft 394 kts 275°
2026-04-14 16:21 51.40801 1.90849 20654 ft 383 kts 275°
2026-04-14 16:21 51.41016 1.86659 20393 ft 372 kts 275°
2026-04-14 16:21 51.41225 1.82576 20142 ft 363 kts 274°
2026-04-14 16:21 51.41423 1.78671 19881 ft 351 kts 274°
2026-04-14 16:22 51.41619 1.74784 19641 ft 349 kts 274°
2026-04-14 16:22 51.41814 1.70896 19407 ft 353 kts 274°
2026-04-14 16:22 51.42009 1.66970 19175 ft 355 kts 274°
2026-04-14 16:22 51.42204 1.63021 18945 ft 356 kts 274°
2026-04-14 16:23 51.42398 1.59071 18704 ft 355 kts 274°
2026-04-14 16:23 51.42591 1.55120 18010 ft 360 kts 273°
2026-04-14 16:23 51.42787 1.51090 17008 ft 363 kts 273°
2026-04-14 16:23 51.42980 1.47060 16030 ft 362 kts 273°
2026-04-14 16:24 51.43147 1.43045 15074 ft 360 kts 268°
2026-04-14 16:24 51.42717 1.39186 14146 ft 356 kts 248°
2026-04-14 16:24 51.41537 1.35737 13181 ft 353 kts 233°
2026-04-14 16:24 51.39789 1.33022 12547 ft 343 kts 218°
2026-04-14 16:25 51.37941 1.30805 12360 ft 323 kts 217°
2026-04-14 16:25 51.36141 1.28715 12232 ft 320 kts 216°
2026-04-14 16:25 51.34341 1.26630 12168 ft 318 kts 217°
2026-04-14 16:25 51.32560 1.24560 12162 ft 315 kts 217°
2026-04-14 16:26 51.30809 1.22516 12165 ft 317 kts 217°
2026-04-14 16:26 51.29033 1.20432 12162 ft 317 kts 217°
2026-04-14 16:26 51.27258 1.18349 12166 ft 316 kts 217°
2026-04-14 16:26 51.25486 1.16269 12155 ft 316 kts 217°
2026-04-14 16:27 51.23730 1.14206 12094 ft 311 kts 217°
2026-04-14 16:27 51.22000 1.12175 11603 ft 308 kts 217°
2026-04-14 16:27 51.20278 1.10153 11446 ft 306 kts 217°
2026-04-14 16:27 51.18553 1.08132 11347 ft 306 kts 217°
2026-04-14 16:28 51.16848 1.06134 11214 ft 302 kts 217°
2026-04-14 16:28 51.15170 1.04170 10884 ft 299 kts 217°
2026-04-14 16:28 51.13490 1.02204 10461 ft 300 kts 217°
2026-04-14 16:28 51.11833 1.00268 10152 ft 298 kts 217°
2026-04-14 16:29 51.10164 0.98318 9770 ft 297 kts 217°
2026-04-14 16:29 51.08506 0.96384 9409 ft 295 kts 217°
2026-04-14 16:29 51.06857 0.94465 9088 ft 292 kts 217°
2026-04-14 16:29 51.05464 0.92216 8949 ft 283 kts 237°
2026-04-14 16:30 51.04564 0.89474 8718 ft 278 kts 244°
2026-04-14 16:30 51.03745 0.86680 8306 ft 280 kts 244°
2026-04-14 16:30 51.02938 0.83903 8176 ft 272 kts 244°
2026-04-14 16:30 51.02161 0.81252 8019 ft 265 kts 244°
2026-04-14 16:31 51.01380 0.78607 7725 ft 265 kts 244°
2026-04-14 16:31 51.00592 0.75954 7511 ft 266 kts 244°
2026-04-14 16:31 50.99786 0.73260 7267 ft 274 kts 244°
2026-04-14 16:31 50.98971 0.70543 7207 ft 271 kts 244°
2026-04-14 16:32 50.98174 0.67889 7155 ft 261 kts 244°
2026-04-14 16:32 50.97412 0.65354 7143 ft 251 kts 244°
2026-04-14 16:32 50.96658 0.62852 7154 ft 251 kts 244°
2026-04-14 16:32 50.95904 0.60350 7159 ft 252 kts 244°
2026-04-14 16:33 50.95148 0.57845 7152 ft 250 kts 244°
2026-04-14 16:33 50.94423 0.55439 7141 ft 240 kts 244°
2026-04-14 16:33 50.93718 0.53106 7046 ft 232 kts 244°
2026-04-14 16:33 50.93026 0.50820 7049 ft 229 kts 244°
2026-04-14 16:34 50.92527 0.48457 7035 ft 228 kts 268°
2026-04-14 16:34 50.93008 0.46095 7047 ft 232 kts 306°
2026-04-14 16:34 50.94192 0.44300 7061 ft 240 kts 316°
2026-04-14 16:34 50.95465 0.42550 7035 ft 242 kts 316°
2026-04-14 16:35 50.96734 0.40823 7011 ft 240 kts 316°
2026-04-14 16:35 50.97752 0.39439 6817 ft 247 kts 316°
2026-04-14 16:35 50.99058 0.37663 6595 ft 247 kts 316°
2026-04-14 16:35 51.00344 0.35909 6484 ft 240 kts 316°
2026-04-14 16:36 51.01588 0.34219 6467 ft 231 kts 316°
2026-04-14 16:36 51.02814 0.32560 6318 ft 232 kts 316°
2026-04-14 16:36 51.04047 0.30884 5982 ft 235 kts 316°
2026-04-14 16:36 51.05261 0.29227 5867 ft 236 kts 316°
2026-04-14 16:37 51.06474 0.27572 5752 ft 234 kts 316°
2026-04-14 16:37 51.07709 0.25887 5474 ft 235 kts 316°
2026-04-14 16:37 51.08950 0.24195 5234 ft 235 kts 316°
2026-04-14 16:37 51.10171 0.22530 5010 ft 234 kts 316°
2026-04-14 16:38 51.11386 0.20875 4769 ft 233 kts 316°
2026-04-14 16:38 51.12617 0.19197 4539 ft 233 kts 316°
2026-04-14 16:38 51.13848 0.17526 4312 ft 232 kts 316°
2026-04-14 16:38 51.15066 0.15874 3961 ft 231 kts 316°
2026-04-14 16:39 51.16289 0.14209 3569 ft 231 kts 316°
2026-04-14 16:39 51.17359 0.12351 3322 ft 226 kts 293°
2026-04-14 16:39 51.17818 0.10041 3164 ft 212 kts 281°
2026-04-14 16:39 51.18150 0.07833 3052 ft 197 kts 274°
2026-04-14 16:40 51.18083 0.05763 2913 ft 180 kts 261°
2026-04-14 16:40 51.17933 0.03803 2591 ft 178 kts 258°
2026-04-14 16:40 51.17709 0.01900 2309 ft 176 kts 255°
2026-04-14 16:40 51.17452 0.00008 2063 ft 174 kts 254°
2026-04-14 16:41 51.17190 -0.01874 2011 ft 175 kts 255°
2026-04-14 16:41 51.16926 -0.03766 1992 ft 176 kts 254°
2026-04-14 16:41 51.16658 -0.05685 1807 ft 178 kts 255°
2026-04-14 16:41 51.16394 -0.07590 1551 ft 172 kts 254°
2026-04-14 16:42 51.16147 -0.09385 1319 ft 160 kts 254°
2026-04-14 16:42 51.15919 -0.11041 1062 ft 151 kts 253°
2026-04-14 16:42 51.15699 -0.12611 853 ft 141 kts 254°
2026-04-14 16:42 51.15494 -0.14105 658 ft 136 kts 253°
2026-04-14 16:43 51.15293 -0.15575 463 ft 134 kts 255°
2026-04-14 16:43 51.15091 -0.17051 274 ft 138 kts 253°
2026-04-14 16:43 51.14893 -0.18482 210 ft 120 kts 253°
2026-04-14 16:43 51.14756 -0.19482 208 ft 58 kts 265°
2026-04-14 16:44 51.14800 -0.19953 213 ft 27 kts 287°
2026-04-14 16:44 51.14805 -0.19978 208 ft 0 kts 287°
2026-04-14 16:45 51.14859 -0.20010 210 ft 17 kts 39°
2026-04-14 16:45 51.14903 -0.19745 214 ft 34 kts 77°
2026-04-14 16:45 51.14955 -0.19372 207 ft 10 kts 78°
2026-04-14 16:45 51.14956 -0.19363 207 ft 0 kts 77°
2026-04-14 16:47 51.14957 -0.19356 210 ft 0 kts 77°
2026-04-14 16:47 51.14962 -0.19310 207 ft 14 kts 83°
2026-04-14 16:47 51.15000 -0.19028 203 ft 37 kts 77°
2026-04-14 16:48 51.15055 -0.18622 207 ft 37 kts 77°
2026-04-14 16:48 51.15110 -0.18231 204 ft 35 kts 78°
2026-04-14 16:48 51.15159 -0.17872 214 ft 32 kts 77°
2026-04-14 16:48 51.15203 -0.17555 209 ft 20 kts 78°
2026-04-14 16:49 51.15222 -0.17424 209 ft 0 kts 77°
2026-04-14 16:52 51.15226 -0.17394 208 ft 10 kts 77°
2026-04-14 16:52 51.15259 -0.17245 213 ft 13 kts 40°
2026-04-14 16:52 51.15290 -0.17228 204 ft 2 kts 14°
2026-04-14 16:53 51.15308 -0.17208 211 ft 5 kts 49°
2026-04-14 16:53 51.15330 -0.17142 204 ft 9 kts 70°
2026-04-14 16:53 51.15349 -0.17017 206 ft 15 kts 77°
2026-04-14 16:53 51.15375 -0.16830 213 ft 20 kts 77°
2026-04-14 16:54 51.15409 -0.16592 208 ft 21 kts 77°
2026-04-14 16:54 51.15434 -0.16502 209 ft 0 kts 66°
2026-04-14 16:55 51.15437 -0.16486 213 ft 4 kts 73°
2026-04-14 16:55 51.15443 -0.16445 204 ft 1 kts 75°
2026-04-14 16:55 51.15443 -0.16444 204 ft 0 kts 75°
2026-04-14 16:55 51.15445 -0.16433 208 ft 0 kts 75°
2026-04-14 16:56 51.15445 -0.16432 208 ft 0 kts 75°
2026-04-14 16:56 51.15445 -0.16431 208 ft 0 kts 76°
2026-04-14 16:56 51.15446 -0.16424 213 ft 0 kts 76°